Wind_Speed
6 6 6 7 7 8 8 8 8 7 7 7 7 7 7 8 8 8 9 9 9 9 9 9 9 9 8 7 7 6 6 5 5 5 5 5 5 6 6 6 7 8 9
7 7 6 6 7 7 7 8 7 6 6 6 6 6 6 6 7 7 7 7 7 7 7 7 7 7 7 6 6 5 5 4 4 4 4 4 5 5 5 6 7 8 9
7 7 7 6 6 6 7 7 6 6 6 6 5 5 6 6 6 6 6 6 6 6 7 6 6 6 5 5 5 4 3 3 3 3 3 3 4 5 5 6 7 8 8
8 8 7 6 6 6 6 6 7 7 7 6 6 6 6 6 6 6 6 6 6 6 7 6 6 5 5 4 3 3 2 1 1 2 3 3 4 5 5 6 6 7 8
9 9 8 7 7 7 7 7 8 8 8 8 7 7 7 7 7 7 7 8 7 7 7 7 7 6 5 5 4 2 2 1 2 2 3 4 4 5 6 6 7 7 8
11 10 9 9 8 8 8 9 9 9 8 8 8 8 8 8 8 9 9 9 9 9 9 8 8 8 7 7 6 5 4 4 4 4 4 5 5 6 6 6 7 7 7
13 12 11 10 9 9 9 10 10 10 10 9 9 10 9 9 10 10 10 11 11 11 11 10 10 10 9 8 8 7 7 6 6 6 6 6 6 7 7 7 7 7 7
13 13 13 12 11 11 11 11 11 11 11 10 10 10 10 10 11 11 12 12 13 13 13 12 12 11 11 10 10 9 9 9 8 8 8 8 8 8 8 8 8 8 8
14 14 13 13 13 12 12 12 12 12 12 12 11 11 11 11 12 12 13 14 15 15 15 14 14 13 13 13 12 12 12 11 11 10 10 10 10 10 9 9 9 9 9
16 15 15 15 15 15 14 14 14 13 13 13 12 12 13 13 13 14 15 16 16 16 16 17 16 16 15 15 14 13 13 13 13 13 12 12 12 12 11 11 11 11 10
18 18 18 17 17 17 17 17 17 16 15 15 15 15 15 15 16 16 17 18 19 19 19 19 18 18 17 17 16 15 15 15 15 15 15 14 14 14 14 13 14 13 12
20 21 20 20 19 19 19 20 20 19 19 19 18 18 18 18 18 19 20 21 22 22 22 22 21 20 20 19 18 17 16 16 17 18 17 17 16 16 17 16 16 16 15
22 21 21 21 22 23 23 24 23 22 22 22 21 20 21 21 21 21 22 23 24 24 25 25 23 22 22 21 20 19 18 18 18 19 19 19 19 18 18 18 19 19 18
23 23 23 24 24 26 27 25 25 25 26 25 25 24 24 25 25 25 25 24 25 26 27 26 26 26 25 23 22 21 20 20 19 20 21 21 21 20 20 20 20 21 21
24 24 24 25 27 28 28 27 26 28 28 28 28 27 27 27 28 27 27 27 28 28 28 28 27 27 27 27 25 24 22 22 22 21 22 23 23 22 22 22 22 23 23
24 24 24 25 26 28 28 28 29 30 32 32 32 29 30 30 29 29 29 29 29 29 29 27 27 27 27 26 25 24 24 24 24 23 23 23 25 25 24 25 24 24 25
24 25 26 26 27 27 28 29 30 31 32 31 30 30 29 29 28 29 28 29 30 30 29 28 27 28 26 25 26 25 25 25 25 25 25 25 25 26 26 26 26 25 26
24 25 26 26 27 28 28 28 29 28 28 28 27 27 28 28 29 29 29 29 31 30 29 28 28 27 26 26 26 26 27 26 25 26 27 27 28 27 28 28 28 28 27
25 25 26 26 27 28 28 28 28 28 28 27 28 29 30 30 31 31 31 31 30 31 29 29 28 27 27 27 27 27 27 27 27 27 27 28 29 29 29 29 29 29 29
25 25 26 27 27 27 28 28 28 28 28 29 30 31 31 32 33 33 32 32 32 31 31 31 29 29 29 29 29 28 28 28 28 28 27 28 29 30 30 30 30 30 30
23 24 25 25 26 28 28 30 30 30 30 31 32 33 34 34 34 34 34 34 34 33 33 33 32 31 31 31 31 31 30 30 30 30 29 29 29 31 31 32 32 32 31
22 24 25 27 28 29 30 31 32 32 32 33 34 34 34 35 35 36 36 36 36 36 35 35 34 34 34 34 33 33 32 31 31 31 31 30 30 32 32 32 32 33 32
22 24 26 28 29 30 31 32 33 33 33 34 34 35 35 36 37 37 36 37 37 37 37 37 37 37 37 37 36 35 33 32 32 32 31 31 31 31 32 33 33 33 32
23 25 27 29 30 32 33 34 34 34 35 35 35 35 36 36 36 36 36 37 37 37 37 38 38 38 38 38 38 37 36 35 33 33 33 32 32 32 33 33 33 33 33
22 24 26 28 30 31 33 33 34 34 35 35 35 36 36 36 35 34 35 35 36 37 37 38 38 38 38 38 39 39 39 38 36 36 35 34 34 33 34 34 35 35 34
22 24 26 28 30 31 32 32 33 34 34 35 35 35 35 36 35 35 35 35 35 36 37 37 38 38 38 38 39 39 39 39 39 38 37 36 35 35 36 35 35 36 35
Wind_Direction
8 11 8 2 3 11 15 19 25 33 39 39 36 33 29 25 23 23 23 26 27 28 29 28 26 29 31 36 42 48 56 63 71 81 88 96 102 110 119 126 127 130 132
1 359 354 354 356 359 3 6 12 16 20 22 22 20 14 8 5 5 8 12 15 16 16 17 17 19 22 27 34 43 52 60 72 83 90 100 109 117 124 132 136 139 140
349 342 337 337 343 346 350 353 357 357 355 355 355 354 352 349 348 346 346 352 357 358 358 359 3 5 7 13 21 31 45 57 73 93 107 116 124 130 134 142 145 146 145
337 329 327 327 331 333 334 337 340 338 335 331 330 331 330 329 329 328 326 328 333 337 339 339 338 340 343 347 353 1 15 63 101 122 139 147 147 144 144 149 155 155 152
331 323 317 319 320 317 317 322 322 321 318 316 315 316 316 314 313 313 312 312 313 317 319 318 317 315 312 311 310 305 287 245 188 177 174 174 172 164 157 155 159 159 157
324 319 312 311 313 309 310 311 308 306 304 304 304 304 305 303 302 303 303 303 301 302 303 301 300 297 294 291 286 276 259 242 221 206 196 189 186 181 175 168 164 165 164
319 315 310 307 305 302 302 302 301 298 295 295 296 298 297 297 297 299 300 298 297 297 296 291 290 288 282 281 278 269 256 240 230 219 210 201 196 191 187 185 180 177 176
316 313 309 304 299 297 294 292 292 291 291 292 291 291 292 294 294 294 295 296 295 295 293 290 287 286 280 276 273 268 265 248 233 226 219 212 207 202 197 195 194 190 186
310 308 307 303 299 292 287 286 286 287 287 288 287 286 287 290 292 294 294 295 295 293 290 288 284 283 282 275 272 268 262 254 240 231 225 220 216 213 208 204 203 202 199
302 299 300 299 297 292 286 283 281 280 280 281 281 282 284 286 288 292 292 294 294 291 288 285 283 281 280 277 271 268 260 252 247 238 232 227 223 220 217 212 210 208 208
297 295 293 292 290 287 284 281 277 274 276 278 279 279 281 284 286 288 288 287 289 288 285 283 282 278 278 276 270 266 262 255 249 242 236 232 228 224 222 218 215 212 212
294 292 289 284 282 282 279 275 275 273 272 273 274 277 279 281 283 285 286 284 286 285 283 281 277 275 276 275 270 265 261 260 250 243 239 235 232 228 225 223 219 217 215
289 288 285 281 279 279 278 273 272 269 267 267 267 270 273 275 277 279 283 283 284 283 279 276 273 271 273 274 272 265 259 259 251 243 241 238 235 230 228 226 224 221 218
289 285 284 281 280 277 279 276 271 267 264 262 263 267 268 270 272 272 274 279 282 282 280 275 272 270 269 271 273 268 261 257 254 246 243 239 236 233 229 228 226 224 221
289 286 285 284 282 278 277 276 275 269 265 263 264 265 265 268 271 272 273 276 279 283 282 277 274 270 268 267 268 268 262 258 254 251 246 240 237 235 232 230 229 228 224
290 288 285 285 287 282 278 278 277 275 268 265 264 264 264 266 270 274 275 279 283 283 281 278 274 272 269 269 267 266 263 261 255 253 247 242 238 237 235 232 232 231 227
288 288 287 286 286 285 283 280 278 276 274 273 271 271 272 272 275 276 277 280 281 281 280 276 272 273 269 269 268 265 264 261 258 254 250 246 241 238 237 236 234 232 230
288 288 290 288 287 287 285 286 286 284 283 280 282 282 281 281 280 280 281 281 280 278 278 276 274 271 269 268 266 265 263 261 261 255 251 247 244 241 239 238 236 234 232
289 288 290 290 290 291 292 291 294 292 290 289 287 285 283 281 281 281 280 281 279 276 277 276 273 271 269 267 266 264 262 260 259 256 253 249 245 242 240 238 235 234 233
288 290 291 292 291 291 292 292 295 296 293 290 287 285 286 283 281 279 278 277 276 276 276 275 274 270 268 266 265 264 261 259 259 256 255 251 247 242 240 238 235 233 234
290 291 293 295 293 295 296 295 294 294 294 291 288 287 285 284 282 280 279 278 276 276 275 274 272 269 268 266 266 264 261 258 258 255 253 251 248 242 240 237 235 233 233
293 294 295 298 300 298 299 298 297 297 296 294 292 291 288 285 282 280 280 278 276 275 275 273 271 269 268 266 265 263 260 257 256 253 251 251 247 242 239 238 235 232 233
297 300 303 303 303 303 301 300 300 299 297 295 294 292 289 286 283 281 280 277 276 275 273 273 270 269 267 266 264 263 260 258 255 250 249 248 247 243 240 238 234 232 233
303 304 305 305 305 304 304 303 302 301 299 297 295 292 290 288 285 282 279 278 276 274 273 272 270 268 266 265 263 261 259 257 254 249 248 246 244 243 239 235 233 232 232
306 306 307 307 306 305 304 303 302 301 299 298 296 294 292 290 288 284 281 278 276 274 272 271 269 268 266 264 262 260 258 255 252 249 247 246 245 242 239 236 233 231 230
310 310 310 310 308 307 305 304 303 301 300 299 297 295 293 291 288 285 282 279 277 275 273 271 269 268 266 263 260 258 256 254 251 248 245 244 243 241 239 235 232 230 228
Height
5905 5905 5905 5904 5904 5903 5902 5901 5901 5901 5900 5900 5900 5900 5900 5899 5899 5899 5899 5899 5899 5898 5898 5898 5897 5897 5896 5896 5896 5896 5896 5896 5896 5895 5895 5895 5895 5896 5896 5896 5897 5897 5898
5905 5905 5904 5904 5903 5902 5901 5901 5900 5900 5900 5900 5900 5900 5899 5899 5899 5899 5899 5898 5898 5898 5898 5897 5897 5897 5896 5896 5896 5896 5896 5896 5896 5896 5896 5896 5896 5897 5897 5897 5898 5898 5899
5905 5904 5904 5903 5902 5901 5901 5900 5900 5899 5899 5899 5899 5899 5899 5899 5899 5898 5898 5898 5898 5897 5897 5897 5896 5896 5896 5896 5896 5896 5896 5896 5896 5897 5897 5897 5897 5898 5898 5898 5899 5900 5900
5905 5904 5903 5902 5901 5901 5900 5899 5899 5899 5898 5898 5898 5898 5898 5898 5897 5897 5897 5897 5897 5896 5896 5896 5896 5895 5895 5895 5895 5895 5895 5896 5896 5897 5897 5898 5898 5898 5899 5899 5900 5900 5901
5904 5903 5902 5901 5900 5900 5899 5898 5898 5898 5897 5897 5897 5896 5896 5896 5896 5896 5896 5895 5895 5895 5895 5895 5894 5894 5894 5894 5894 5894 5895 5895 5896 5896 5897 5897 5898 5899 5899 5900 5900 5901 5902
5903 5902 5901 5900 5899 5898 5898 5897 5897 5896 5896 5895 5895 5895 5894 5894 5894 5894 5894 5893 5893 5893 5893 5893 5893 5893 5893 5893 5893 5893 5893 5894 5895 5895 5896 5897 5898 5899 5899 5900 5901 5901 5902
5902 5901 5900 5899 5898 5897 5896 5896 5895 5894 5894 5893 5893 5893 5892 5892 5892 5891 5891 5891 5891 5891 5891 5890 5890 5891 5891 5891 5891 5891 5891 5892 5893 5894 5895 5896 5897 5898 5899 5900 5901 5901 5902
5900 5899 5898 5897 5896 5895 5895 5894 5893 5893 5892 5892 5891 5891 5890 5890 5889 5889 5889 5888 5888 5888 5888 5888 5888 5888 5888 5888 5888 5889 5889 5890 5891 5892 5893 5894 5895 5896 5898 5899 5900 5901 5902
5898 5897 5896 5895 5894 5893 5892 5892 5891 5890 5890 5890 5889 5888 5888 5888 5887 5887 5886 5886 5885 5885 5885 5885 5885 5885 5885 5885 5885 5886 5886 5887 5888 5889 5890 5892 5893 5894 5896 5897 5899 5900 5901
5895 5894 5894 5893 5892 5891 5890 5889 5889 5888 5887 5887 5886 5886 5885 5885 5885 5884 5884 5883 5882 5882 5881 5881 5881 5881 5881 5882 5882 5882 5883 5884 5885 5886 5887 5889 5890 5892 5894 5895 5897 5898 5900
5892 5891 5891 5890 5889 5888 5887 5887 5886 5885 5884 5884 5883 5883 5883 5882 5882 5881 5880 5879 5879 5878 5878 5877 5877 5877 5877 5877 5878 5879 5879 5880 5881 5882 5884 5886 5887 5889 5891 5892 5894 5896 5898
5888 5888 5887 5886 5885 5884 5883 5882 5882 5881 5881 5880 5879 5879 5879 5878 5878 5877 5876 5875 5875 5874 5873 5873 5873 5873 5873 5873 5873 5874 5875 5876 5877 5878 5880 5882 5883 5885 5887 5889 5891 5894 5896
5884 5883 5882 5881 5880 5879 5878 5877 5876 5876 5876 5875 5874 5874 5874 5873 5872 5872 5871 5871 5870 5869 5868 5868 5868 5868 5867 5868 5868 5869 5870 5872 5872 5874 5875 5877 5879 5881 5883 5885 5888 5890 5892
5879 5878 5876 5876 5874 5874 5872 5871 5871 5870 5869 5869 5868 5868 5867 5867 5866 5866 5866 5865 5864 5863 5862 5862 5862 5862 5862 5862 5862 5863 5864 5866 5868 5869 5871 5873 5875 5877 5879 5881 5884 5886 5888
5874 5872 5871 5870 5869 5868 5867 5866 5865 5864 5862 5862 5861 5860 5860 5860 5859 5858 5858 5858 5857 5856 5856 5856 5856 5856 5856 5856 5856 5857 5858 5860 5862 5864 5866 5868 5870 5872 5874 5876 5879 5882 5884
5869 5867 5866 5865 5863 5862 5861 5859 5858 5856 5855 5853 5852 5852 5852 5852 5853 5853 5852 5852 5851 5850 5849 5849 5850 5850 5850 5850 5851 5851 5853 5854 5856 5858 5860 5862 5865 5867 5869 5871 5874 5877 5880
5864 5862 5861 5859 5858 5856 5854 5852 5851 5849 5848 5846 5845 5845 5845 5845 5845 5845 5845 5845 5844 5843 5842 5843 5843 5844 5844 5845 5845 5846 5847 5848 5850 5852 5854 5856 5859 5861 5864 5866 5868 5871 5874
5858 5857 5855 5854 5852 5849 5847 5845 5844 5843 5841 5839 5839 5838 5838 5838 5838 5837 5838 5837 5837 5836 5835 5835 5836 5837 5837 5838 5839 5840 5840 5842 5843 5845 5847 5850 5852 5855 5857 5860 5862 5865 5868
5853 5851 5850 5849 5846 5843 5841 5840 5839 5836 5835 5833 5833 5832 5831 5831 5831 5831 5830 5830 5829 5829 5829 5829 5830 5830 5831 5831 5832 5833 5833 5835 5837 5839 5841 5842 5845 5847 5850 5853 5856 5859 5862
5848 5846 5845 5843 5841 5839 5837 5835 5834 5832 5830 5829 5828 5826 5825 5825 5824 5823 5823 5823 5822 5822 5822 5822 5822 5822 5823 5824 5825 5826 5827 5828 5830 5831 5833 5835 5837 5840 5843 5845 5849 5852 5856
5842 5841 5839 5837 5835 5833 5831 5829 5828 5826 5824 5823 5821 5819 5818 5816 5815 5815 5814 5814 5814 5814 5814 5814 5814 5815 5815 5816 5817 5818 5819 5821 5822 5824 5825 5828 5830 5832 5835 5838 5841 5845 5849
5837 5835 5834 5832 5830 5827 5825 5823 5821 5818 5816 5815 5813 5810 5807 5806 5806 5806 5805 5805 5804 5804 5804 5804 5805 5806 5807 5807 5809 5810 5811 5814 5815 5816 5818 5820 5822 5824 5827 5831 5834 5838 5842
5833 5831 5829 5826 5824 5821 5819 5816 5813 5810 5808 5806 5804 5802 5800 5798 5797 5796 5795 5795 5794 5794 5794 5794 5795 5796 5797 5798 5799 5801 5802 5804 5806 5808 5810 5812 5814 5817 5820 5823 5827 5830 5834
5830 5827 5824 5821 5818 5814 5811 5808 5805 5803 5800 5798 5796 5793 5791 5789 5787 5786 5785 5785 5784 5784 5784 5784 5785 5785 5787 5788 5789 5790 5792 5794 5797 5799 5801 5803 5806 5808 5812 5815 5819 5823 5827
5826 5823 5819 5816 5812 5808 5805 5801 5798 5795 5792 5789 5786 5784 5781 5779 5778 5777 5776 5775 5774 5774 5773 5773 5774 5775 5776 5777 5778 5779 5781 5784 5786 5789 5792 5794 5797 5800 5803 5807 5811 5815 5819
5822 5818 5814 5810 5807 5803 5799 5795 5791 5788 5784 5781 5778 5775 5772 5770 5768 5766 5765 5765 5764 5763 5763 5763 5763 5763 5764 5766 5767 5769 5771 5773 5776 5779 5782 5785 5788 5791 5795 5798 5803 5807 5811